Toccoa Rg Letourneau Field, T, GA

4:31 PM EDT on August 20, 2017 (GMT -0400)
Toccoa-Letourneau

Weather History for KTOC - January, 2014

Change the Weather History Date:

Monday, January 6, 2014

  Actual Average Record
Temperature  
Mean Temperature 28 °F -  
Max Temperature 45 °F 50 °F 58 °F (2015)
Min Temperature 12 °F 32 °F 12 °F (2014)
Degree Days  
Heating Degree Days 38    
Moisture  
Dew Point 13 °F    
Average Humidity 56    
Maximum Humidity 100    
Minimum Humidity 34    
Precipitation  
Precipitation 0.00 in - - ()
Sea Level Pressure  
Sea Level Pressure 30.07 in    
Wind  
Wind Speed 8 mph (WNW)    
Max Wind Speed 21 mph    
Max Gust Speed 32 mph    
Visibility 10 miles    
Events Rain    
Averages and records for this station are not official NWS values.
T = Trace of Precipitation, MM = Missing Value Source: NWS Daily Summary

Daily Weather History Graph

Daily Weather History Graph

Search for Another Location

Airport or City:

Trip Planner

Search our weather history database for the weather conditions in past years. The results will help you decide how hot, cold, wet, or windy it might be!

Date:

Astronomy

Jan. 06, 2014 Rise Set
Actual Time 7:40 AM EST 5:37 PM EST
Civil Twilight 7:13 AM EST 6:05 PM EST
Nautical Twilight 6:41 AM EST 6:36 PM EST
Astronomical Twilight 6:11 AM EST 7:07 PM EST
Moon 11:11 AM EST (1/6) 11:52 PM EST (1/6)
Length of Visible Light 10h 52m
Length of Day
9h 56m
Waxing Crescent, 34% of the Moon is Illuminated
Jan 6
Waxing Crescent
Jan 7
First Quarter
Jan 15
Full
Jan 24
Last Quarter
Jan 30
New

Hourly Weather History & Observations

Time (EST) Temp. Windchill Dew Point Humidity Pressure Visibility Wind Dir Wind Speed Gust Speed Precip Events Conditions
12:15 AM 42.3 °F - 42.3 °F 100% 29.75 in 1.2 mi Calm Calm - N/A Rain Rain
12:35 AM 42.1 °F - 42.1 °F 100% 29.74 in 2.5 mi Calm Calm - N/A   Drizzle
12:55 AM 42.1 °F - 42.1 °F 100% 29.74 in 3.0 mi Calm Calm - N/A Rain Rain
4:15 AM 43.3 °F 38.6 °F 40.8 °F 91% 29.77 in 10.0 mi West 8.1 mph - N/A   Overcast
4:35 AM 42.3 °F 35.1 °F 37.4 °F 83% 29.77 in 10.0 mi West 13.8 mph 17.3 mph N/A   Mostly Cloudy
4:55 AM 40.3 °F 33.9 °F 34.7 °F 80% 29.78 in 10.0 mi West 10.4 mph 17.3 mph N/A   Clear
5:15 AM 38.3 °F 31.9 °F 32.7 °F 80% 29.80 in 10.0 mi West 9.2 mph 16.1 mph N/A   Clear
5:35 AM 36.7 °F 29.9 °F 31.6 °F 82% 29.81 in 10.0 mi West 9.2 mph - N/A   Scattered Clouds
5:55 AM 35.1 °F 27.4 °F 30.2 °F 82% 29.83 in 10.0 mi West 10.4 mph 17.3 mph N/A   Clear
6:15 AM 34.2 °F 26.2 °F 29.7 °F 84% 29.84 in 10.0 mi West 10.4 mph - N/A   Clear
6:35 AM 33.8 °F 27.0 °F 28.9 °F 82% 29.85 in 10.0 mi West 8.1 mph - N/A   Clear
6:55 AM 33.8 °F 28.6 °F 28.2 °F 80% 29.87 in 10.0 mi WNW 5.8 mph - N/A   Clear
7:15 AM 33.4 °F 28.1 °F 27.1 °F 78% 29.88 in 10.0 mi WNW 5.8 mph - N/A   Clear
7:35 AM 32.9 °F 23.7 °F 25.7 °F 75% 29.90 in 10.0 mi West 12.7 mph 20.7 mph N/A   Clear
7:55 AM 32.2 °F 23.8 °F 24.4 °F 73% 29.92 in 10.0 mi WNW 10.4 mph 19.6 mph N/A   Clear
8:15 AM 32.0 °F 25.6 °F 23.2 °F 70% 29.94 in 10.0 mi WNW 6.9 mph 18.4 mph N/A   Clear
8:35 AM 32.0 °F 23.0 °F 22.1 °F 67% 29.96 in 10.0 mi WNW 11.5 mph 19.6 mph N/A   Clear
8:55 AM 31.8 °F 24.6 °F 21.2 °F 65% 29.97 in 10.0 mi WNW 8.1 mph 16.1 mph N/A   Clear
9:15 AM 31.5 °F 25.8 °F 20.3 °F 63% 29.98 in 10.0 mi West 5.8 mph 17.3 mph N/A   Clear
9:35 AM 31.5 °F 23.5 °F 19.4 °F 61% 29.99 in 10.0 mi West 9.2 mph 16.1 mph N/A   Clear
9:55 AM 30.6 °F 21.2 °F 20.3 °F 66% 30.01 in 10.0 mi West 11.5 mph - N/A   Clear
10:15 AM 32.0 °F 23.0 °F 20.8 °F 63% 30.02 in 10.0 mi West 11.5 mph 21.9 mph N/A   Clear
10:35 AM 33.3 °F 24.6 °F 20.1 °F 59% 30.03 in 10.0 mi West 11.5 mph 18.4 mph N/A   Clear
10:55 AM 33.8 °F 25.8 °F 20.1 °F 57% 30.03 in 10.0 mi West 10.4 mph - N/A   Clear
11:15 AM 34.5 °F 28.6 °F 19.2 °F 54% 30.03 in 10.0 mi West 6.9 mph 16.1 mph N/A   Clear
11:35 AM 34.0 °F 24.2 °F 19.0 °F 54% 30.03 in 10.0 mi West 15.0 mph 21.9 mph N/A   Clear
11:55 AM 34.7 °F 26.4 °F 19.2 °F 53% 30.03 in 10.0 mi West 11.5 mph 18.4 mph N/A   Clear
12:15 PM 34.3 °F 26.5 °F 18.0 °F 51% 30.03 in 10.0 mi West 10.4 mph 20.7 mph N/A   Clear
12:35 PM 33.1 °F 22.6 °F 16.3 °F 50% 30.04 in 10.0 mi West 16.1 mph 24.2 mph N/A   Clear
12:55 PM 32.0 °F 20.8 °F 14.5 °F 49% 30.04 in 10.0 mi West 17.3 mph 24.2 mph N/A   Clear
1:15 PM 32.7 °F 22.5 °F 12.7 °F 44% 30.04 in 10.0 mi West 15.0 mph 27.6 mph N/A   Clear
1:35 PM 32.5 °F 21.5 °F 12.0 °F 43% 30.04 in 10.0 mi West 17.3 mph 26.5 mph N/A   Clear
1:55 PM 32.0 °F 21.6 °F 8.4 °F 37% 30.04 in 10.0 mi WNW 15.0 mph 29.9 mph N/A   Clear
2:15 PM 32.0 °F 21.2 °F 6.8 °F 35% 30.05 in 10.0 mi WNW 16.1 mph 27.6 mph N/A   Clear
2:35 PM 31.1 °F 20.1 °F 7.2 °F 37% 30.06 in 10.0 mi NW 16.1 mph 27.6 mph N/A   Clear
2:55 PM 30.6 °F 19.8 °F 6.3 °F 36% 30.07 in 10.0 mi WNW 15.0 mph 26.5 mph N/A   Clear
3:15 PM 28.6 °F 16.0 °F 6.1 °F 39% 30.09 in 10.0 mi NW 18.4 mph 32.2 mph N/A   Clear
3:35 PM 27.3 °F 13.6 °F 2.1 °F 34% 30.11 in 10.0 mi NW 20.7 mph 29.9 mph N/A   Clear
3:55 PM 25.7 °F 17.1 °F 5.0 °F 41% 30.13 in 10.0 mi WNW 8.1 mph 26.5 mph N/A   Clear
4:15 PM 24.4 °F 14.9 °F 3.2 °F 40% 30.14 in 10.0 mi West 9.2 mph 19.6 mph N/A   Clear
4:35 PM 22.8 °F 9.9 °F 1.4 °F 40% 30.16 in 10.0 mi West 15.0 mph 24.2 mph N/A   Clear
4:55 PM 21.9 °F 9.2 °F 2.1 °F 42% 30.16 in 10.0 mi WNW 13.8 mph 25.3 mph N/A   Clear
5:15 PM 21.0 °F 9.3 °F -1.1 °F 38% 30.17 in 10.0 mi WNW 11.5 mph 24.2 mph N/A   Clear
5:35 PM 19.9 °F 5.2 °F -4.0 °F 35% 30.18 in 10.0 mi NW 17.3 mph 23.0 mph N/A   Clear
5:55 PM 19.2 °F 9.3 °F -2.9 °F 38% 30.19 in 10.0 mi WNW 8.1 mph 21.9 mph N/A   Clear
6:15 PM 18.5 °F 7.5 °F -0.9 °F 43% 30.20 in 10.0 mi West 9.2 mph - N/A   Clear
6:35 PM 17.8 °F 6.6 °F -2.2 °F 41% 30.22 in 10.0 mi WNW 9.2 mph 16.1 mph N/A   Clear
6:55 PM 17.2 °F 8.9 °F -2.6 °F 42% 30.24 in 10.0 mi West 5.8 mph 17.3 mph N/A   Clear
7:15 PM 16.7 °F 3.8 °F -2.7 °F 42% 30.25 in 10.0 mi WNW 11.5 mph 16.1 mph N/A   Clear
7:35 PM 16.3 °F 4.1 °F -2.4 °F 44% 30.27 in 10.0 mi NW 10.4 mph 18.4 mph N/A   Clear
7:55 PM 16.0 °F 7.4 °F -2.2 °F 45% 30.28 in 10.0 mi WNW 5.8 mph 17.3 mph N/A   Clear
8:15 PM 15.8 °F 4.2 °F -4.4 °F 41% 30.28 in 10.0 mi West 9.2 mph 21.9 mph N/A   Clear
8:35 PM 15.4 °F 3.0 °F -4.2 °F 42% 30.29 in 10.0 mi WNW 10.4 mph 17.3 mph N/A   Clear
8:55 PM 15.1 °F 3.3 °F -4.4 °F 42% 30.30 in 10.0 mi WNW 9.2 mph 18.4 mph N/A   Clear
9:15 PM 14.9 °F 5.0 °F -4.4 °F 42% 30.31 in 10.0 mi WNW 6.9 mph - N/A   Clear
9:35 PM 14.5 °F 1.9 °F -5.6 °F 41% 30.31 in 10.0 mi WNW 10.4 mph 18.4 mph N/A   Clear
9:55 PM 14.0 °F 1.2 °F -6.2 °F 41% 30.31 in 10.0 mi WNW 10.4 mph 17.3 mph N/A   Clear
10:15 PM 13.8 °F -0.5 °F -6.0 °F 41% 30.31 in 10.0 mi NW 12.7 mph 21.9 mph N/A   Clear
10:35 PM 13.5 °F 0.5 °F -5.8 °F 42% 30.31 in 10.0 mi NW 10.4 mph 18.4 mph N/A   Clear
10:55 PM 13.1 °F 7.1 °F -3.5 °F 48% 30.31 in 10.0 mi WSW 3.5 mph - N/A   Clear
11:15 PM 12.6 °F 3.4 °F -2.0 °F 52% 30.32 in 10.0 mi West 5.8 mph - N/A   Clear
11:35 PM 12.2 °F -1.0 °F -2.4 °F 52% 30.31 in 10.0 mi West 10.4 mph - N/A   Clear
11:55 PM 12.2 °F 1.7 °F -2.4 °F 52% 30.31 in 10.0 mi West 6.9 mph - N/A   Clear